Farmville, VA

7:26 AM EDT on October 14, 2019 (GMT -0400)
Farmville Regional

Weather History for KFVX - September, 2019

Change the Weather History Date:

Sunday, September 15, 2019

  Actual Average Record
Temperature  
Mean Temperature 74 °F -  
Max Temperature 86 °F 82 °F 95 °F (1930)
Min Temperature 64 °F 57 °F 40 °F (1985)
Cooling Degree Days 10    
Growing Degree Days 24 (Base 50)    
Moisture  
Dew Point 68 °F    
Average Humidity 86    
Maximum Humidity 100    
Minimum Humidity 54    
Precipitation  
Precipitation 0.00 in - - ()
Sea Level Pressure  
Sea Level Pressure 30.14 in    
Wind  
Wind Speed 2 mph ()    
Max Wind Speed 9 mph    
Max Gust Speed -    
Visibility 8.2 miles    
Events      
Averages and records for this station are not official NWS values.
T = Trace of Precipitation, MM = Missing Value Source: Averaged Metar Reports

Daily Weather History Graph

Daily Weather History Graph

Search for Another Location

Airport or City:

Astronomy

Sep. 15, 2019 Rise Set
Actual Time 6:55 AM EDT 7:21 PM EDT
Civil Twilight 6:29 AM EDT 7:47 PM EDT
Nautical Twilight 5:58 AM EDT 8:18 PM EDT
Astronomical Twilight 5:27 AM EDT 8:49 PM EDT
Moon 8:29 PM EDT (9/15) 8:03 AM EDT (9/15)
Length of Visible Light 13h 18m
Length of Day
12h 26m
Full, 98% of the Moon is Illuminated
Sep 15
Full
Sep 21
Last Quarter
Sep 28
New
Oct 5
First Quarter
Oct 13
Full

Hourly Weather History & Observations

Time (EDT) Temp. Heat Index Dew Point Humidity Pressure Visibility Wind Dir Wind Speed Gust Speed Precip Events Conditions
12:15 AM 70.5 °F - 69.4 °F 96% 30.17 in 10.0 mi Calm Calm - N/A   Scattered Clouds
12:35 AM 70.0 °F - 69.3 °F 98% 30.17 in 10.0 mi Calm Calm - N/A   Clear
12:55 AM 69.1 °F - 68.9 °F 99% 30.17 in 7.0 mi Calm Calm - N/A   Clear
1:15 AM 69.1 °F - 68.9 °F 99% 30.17 in 7.0 mi Calm Calm - N/A   Mostly Cloudy
1:35 AM 69.1 °F - 68.9 °F 99% 30.16 in 5.0 mi Calm Calm - N/A   Mostly Cloudy
1:55 AM 69.1 °F - 68.9 °F 99% 30.16 in 7.0 mi Calm Calm - N/A   Scattered Clouds
2:15 AM 68.9 °F - 68.5 °F 99% 30.16 in 5.0 mi Calm Calm - N/A   Clear
2:35 AM 68.5 °F - 68.2 °F 99% 30.15 in 4.0 mi Calm Calm - N/A   Scattered Clouds
2:55 AM 68.4 °F - 68.2 °F 99% 30.15 in 4.0 mi Calm Calm - N/A   Scattered Clouds
3:15 AM 68.4 °F - 68.2 °F 99% 30.15 in 1.5 mi Calm Calm - N/A   Mostly Cloudy
3:35 AM 68.4 °F - 68.2 °F 99% 30.16 in 7.0 mi Calm Calm - N/A   Overcast
4:15 AM 69.8 °F - 69.3 °F 98% 30.15 in 7.0 mi Calm Calm - N/A   Overcast
4:35 AM 69.6 °F - 69.3 °F 99% 30.14 in 7.0 mi Calm Calm - N/A   Overcast
4:55 AM 69.8 °F - 69.4 °F 99% 30.15 in 7.0 mi Calm Calm - N/A   Overcast
5:15 AM 69.8 °F - 69.3 °F 98% 30.15 in 7.0 mi Calm Calm - N/A   Overcast
5:35 AM 69.4 °F - 69.1 °F 99% 30.15 in 7.0 mi Calm Calm - N/A   Overcast
5:55 AM 69.8 °F - 69.4 °F 99% 30.15 in 7.0 mi Calm Calm - N/A   Overcast
6:15 AM 70.0 °F - 69.6 °F 99% 30.15 in 7.0 mi Calm Calm - N/A   Overcast
6:55 AM 70.2 °F - 69.8 °F 99% 30.15 in 7.0 mi Calm Calm - N/A   Overcast
7:15 AM 69.8 °F - 69.4 °F 99% 30.16 in 5.0 mi Calm Calm - N/A   Overcast
7:35 AM 70.2 °F - 69.8 °F 99% 30.17 in 7.0 mi North 4.6 mph - N/A   Overcast
7:55 AM 70.2 °F - 69.8 °F 99% 30.17 in 5.0 mi NNE 3.5 mph - N/A   Overcast
8:15 AM 70.3 °F - 69.6 °F 98% 30.17 in 7.0 mi NNE 3.5 mph - N/A   Overcast
8:35 AM 70.9 °F - 69.8 °F 96% 30.17 in 7.0 mi NNE 4.6 mph - N/A   Overcast
8:55 AM 71.8 °F - 69.6 °F 93% 30.18 in 10.0 mi NNE 4.6 mph - N/A   Overcast
9:15 AM 72.3 °F - 69.4 °F 91% 30.18 in 10.0 mi NNE 4.6 mph - N/A   Overcast
9:35 AM 74.5 °F - 70.0 °F 86% 30.18 in 10.0 mi NNE 5.8 mph - N/A   Overcast
9:55 AM 74.8 °F - 69.8 °F 84% 30.18 in 10.0 mi NNE 5.8 mph - N/A   Overcast
10:15 AM 73.9 °F - 69.3 °F 85% 30.18 in 10.0 mi NNE 6.9 mph - N/A   Overcast
10:35 AM 73.8 °F - 69.1 °F 85% 30.19 in 10.0 mi NNE 8.1 mph - N/A   Overcast
10:55 AM 73.8 °F - 68.9 °F 85% 30.19 in 10.0 mi NNE 6.9 mph - N/A   Overcast
11:15 AM 74.1 °F - 68.7 °F 83% 30.19 in 10.0 mi NNE 6.9 mph - N/A   Overcast
11:35 AM 76.1 °F - 69.3 °F 79% 30.19 in 10.0 mi NNE 6.9 mph - N/A   Overcast
11:55 AM 76.3 °F - 68.9 °F 78% 30.18 in 10.0 mi NNE 9.2 mph - N/A   Overcast
12:15 PM 78.1 °F - 68.7 °F 73% 30.18 in 10.0 mi NNE 8.1 mph - N/A   Overcast
12:35 PM 77.2 °F - 68.9 °F 76% 30.18 in 10.0 mi NNE 5.8 mph - N/A   Overcast
1:15 PM 82.8 °F 86.7 °F 70.0 °F 65% 30.16 in 10.0 mi East 6.9 mph - N/A   Scattered Clouds
1:35 PM 81.3 °F 84.6 °F 69.6 °F 67% 30.15 in 10.0 mi NE 4.6 mph - N/A   Scattered Clouds
1:55 PM 83.7 °F 87.7 °F 69.8 °F 63% 30.14 in 10.0 mi North 4.6 mph - N/A   Mostly Cloudy
2:15 PM 81.3 °F 84.5 °F 69.1 °F 66% 30.14 in 10.0 mi North 3.5 mph - N/A   Mostly Cloudy
2:35 PM 83.3 °F 87.1 °F 69.4 °F 63% 30.13 in 10.0 mi ENE 4.6 mph - N/A   Overcast
2:55 PM 82.0 °F 85.5 °F 69.3 °F 65% 30.12 in 10.0 mi Calm Calm - N/A   Mostly Cloudy
3:15 PM 82.4 °F 85.6 °F 68.5 °F 63% 30.11 in 10.0 mi Calm Calm - N/A   Clear
3:35 PM 85.5 °F 89.8 °F 69.4 °F 59% 30.11 in 10.0 mi NE 4.6 mph - N/A   Mostly Cloudy
3:55 PM 84.9 °F 88.8 °F 69.1 °F 59% 30.11 in 10.0 mi NE 5.8 mph - N/A   Overcast
4:15 PM 81.5 °F 84.8 °F 69.1 °F 66% 30.11 in 10.0 mi NNE 4.6 mph - N/A   Mostly Cloudy
4:55 PM 84.0 °F 87.0 °F 67.8 °F 58% 30.10 in 10.0 mi NE 4.6 mph - N/A   Clear
5:15 PM 83.8 °F 86.7 °F 67.5 °F 58% 30.09 in 10.0 mi NE 4.6 mph - N/A   Clear
5:35 PM 85.6 °F 88.5 °F 67.1 °F 54% 30.09 in 10.0 mi East 3.5 mph - N/A   Clear
5:55 PM 82.9 °F 85.6 °F 67.5 °F 59% 30.09 in 10.0 mi Calm Calm - N/A   Clear
6:15 PM 81.5 °F 84.6 °F 68.5 °F 65% 30.09 in 10.0 mi North 3.5 mph - N/A   Clear
6:35 PM 79.7 °F - 68.0 °F 67% 30.09 in 10.0 mi North 3.5 mph - N/A   Clear
6:55 PM 77.4 °F - 68.0 °F 73% 30.09 in 10.0 mi Calm Calm - N/A   Clear
7:35 PM 75.4 °F - 68.0 °F 78% 30.09 in 10.0 mi Calm Calm - N/A   Clear
7:55 PM 74.5 °F - 67.8 °F 80% 30.09 in 10.0 mi Calm Calm - N/A   Clear
8:15 PM 73.4 °F - 67.5 °F 82% 30.09 in 10.0 mi Calm Calm - N/A   Clear
8:35 PM 69.6 °F - 67.1 °F 92% 30.09 in 10.0 mi Calm Calm - N/A   Clear
8:55 PM 69.4 °F - 67.1 °F 92% 30.10 in 10.0 mi Calm Calm - N/A   Clear
9:35 PM 68.2 °F - 67.1 °F 96% 30.11 in 10.0 mi Calm Calm - N/A   Clear
9:55 PM 67.5 °F - 66.7 °F 98% 30.11 in 7.0 mi Calm Calm - N/A   Clear
10:15 PM 66.7 °F - 66.2 °F 98% 30.11 in 7.0 mi Calm Calm - N/A   Clear
10:35 PM 66.4 °F - 66.2 °F 99% 30.11 in 5.0 mi Calm Calm - N/A   Clear
10:55 PM 66.2 °F - 66.0 °F 99% 30.11 in 7.0 mi Calm Calm - N/A   Clear
11:15 PM 65.7 °F - 65.5 °F 99% 30.10 in 3.0 mi Calm Calm - N/A   Clear
11:35 PM 64.2 °F - 63.9 °F 99% 30.11 in 1.2 mi Calm Calm - N/A   Mist
11:55 PM 64.4 °F - 64.4 °F 100% 30.11 in 4.0 mi Calm Calm - N/A   Clear